User: anonymous   Login
Location: Unspecified
(0.0000°N, 0.0000°E)
Time: 03:07:10
(UTC+00:00)
Language:

Max Valier Satellite - Orbit

View from above orbital plane
View from above orbital plane
View from above satellite
View from above satellite

Ground track
Ground track

The orbit data is extracted from the following two-line orbital elements,

1 42778U 17036P   18116.61122669 +.00001077 +00000-0 +51359-4 0  9997
2 42778 097.4083 177.1698 0011143 246.9165 113.0896 15.21193275046669
Epoch (UTC): 26 April 2018 14:40:09
Eccentricity: 0.0011143
inclination: 97.4083°
perigee height: 494 km
apogee height: 510 km
right ascension of ascending node: 177.1698°
argument of perigee: 246.9165°
revolutions per day: 15.21193275
mean anomaly at epoch: 113.0896°
orbit number at epoch: 4666

The dashed part of the orbit path shows where the satellite is in the earth's shadow,  

DLR